Regional Weather Roundup
Issued by NWS

Home | Current Version | Previous Version | Text Only | Print | Product List | Glossary On
Versions: 1 2 3 4 5 6 7 8 9 10 11 12 13 14 15 16 17 18 19 20 21 22 23 24 25 26 27 28 29 30 31 32 33 34 35 36 37 38 39 40 41 42 43 44 45 46 47 48 49 50
000
ASUS43 KLMK 211102
RWRKY
KENTUCKY REGIONAL WEATHER ROUNDUP
NATIONAL WEATHER SERVICE LOUISVILLE KY
700 AM EDT TUE OCT 21 2014

NOTE "FAIR" INDICATES FEW OR NO CLOUDS BELOW 12,000 FEET
WITH NO SIGNIFICANT WEATHER AND/OR OBSTRUCTIONS TO VISIBILITY.

KYZ001>023-026-027-061>063-070>075-211200-
WESTERN AND SOUTH CENTRAL KENTUCKY

CITY           SKY/WX    TMP DP  RH WIND       PRES   REMARKS
PADUCAH        CLEAR     44  43  96 SW5       30.05R
HENDERSON      CLEAR    N/A N/A N/A CALM      30.03R
OWENSBORO      CLEAR     45  43  93 CALM      30.03R
HOPKINSVILLE   CLEAR     48  48 100 CALM      30.03R
BOWLING GREEN  CLEAR     47  45  93 CALM      30.02R
GLASGOW        NOT AVBL
$$

KYZ024-025-028>034-038-045-046-053-211200-
NORTH CENTRAL KENTUCKY

CITY           SKY/WX    TMP DP  RH WIND       PRES   REMARKS
LOUISVILLE/SDF PTCLDY    48  45  89 SW9       30.00R
LOUISVILLE/LOU MOCLDY    46  44  93 CALM      30.01R
FORT KNOX      CLEAR     44  43  93 W6        30.00R
$$

KYZ035>037-039>044-047>052-055>060-089>105-211200-
NORTHEAST KENTUCKY

CITY           SKY/WX    TMP DP  RH WIND       PRES   REMARKS
LEXINGTON      PTCLDY    51  46  83 NW7       29.98R
COVINGTON      PTCLDY    48  44  86 NW8       29.97R
FRANKFORT      PTCLDY    47  45  93 NW5       29.97R
$$

KYZ054-064>069-076>088-106>120-211200-
SOUTHEAST KENTUCKY

CITY           SKY/WX    TMP DP  RH WIND       PRES   REMARKS
JACKSON        PTCLDY    49  47  93 CALM      29.95R
LONDON         CLEAR     45  41  86 CALM      29.98R
SOMERSET       FOG       43  43 100 CALM      30.00R VSB 1
MIDDLESBORO    PTCLDY    44  44 100 CALM      29.99R
MONTICELLO     FOG       39  39 100 CALM      30.02R VSB 1/2
$$



USA.gov is the U.S. government's official web portal to all federal, state and local government web resources and services.